Regional Weather Roundup
Issued by NWS

Home | Current Version | Previous Version | Graphics & Text | Print | Product List | Glossary On
Versions: 1 2 3 4 5 6 7 8 9 10 11 12 13 14 15 16 17 18 19 20 21 22 23 24 25 26 27 28 29 30 31 32 33 34 35 36 37 38 39 40 41 42 43 44 45 46 47 48 49 50
000
ASUS43 KMKX 190321
RWRWI

WISCONSIN REGIONAL WEATHER ROUNDUP
NATIONAL WEATHER SERVICE MILWAUKEE/SULLIVAN WI
1000 PM CDT THU SEP 18 2014

NOTE: "FAIR" INDICATES FEW OR NO CLOUDS BELOW 12,000 FEET WITH NO
SIGNIFICANT WEATHER AND/OR OBSTRUCTIONS TO VISIBILITY.

WIZ001-002-006>008-014>016-023>028-190400-
NORTHWEST WISCONSIN

CITY           SKY/WX    TMP DP  RH WIND       PRES   REMARKS
SUPERIOR ARPT  PTCLDY    47  47  97 E3        30.03F
ASHLAND        CLEAR     40  39  97 CALM      30.06F FOG
HAYWARD        CLEAR     54  51  90 S5        30.06F
SIREN          CLEAR     56  53  88 SE12      30.01F
RICE LAKE      PTCLDY    53  50  90 SE9       30.08F
LADYSMITH      CLEAR     50  48  93 SE3       30.11F FOG
EAU CLAIRE     CLOUDY    56  52  86 SE7       30.07F
MENOMONIE      MOCLDY    55  53  92 SE8       30.06F
NEW RICHMOND   PTCLDY    57  55  93 SE10      30.02F
OSCEOLA        PTCLDY    58  58  97 SE9G17    30.04S
$$

WIZ003>005-009-010-017-018-190400-
NORTH CENTRAL WISCONSIN

CITY           SKY/WX    TMP DP  RH WIND       PRES   REMARKS
WOODRUFF       CLEAR     52  49  91 S7        30.11S
RHINELANDER    CLEAR     47  45  93 S6        30.14S
EAGLE RIVER    CLEAR     46  46  99 S3        30.12S
LAND O LAKES   CLEAR     44  44 100 S3        30.13S
PHILLIPS       CLEAR     49  47  93 SE6       30.10F
TOMAHAWK       CLEAR     45  44  96 CALM      30.14S FOG
MEDFORD        CLEAR     47  46  96 SE6       30.12S
MERRILL        CLEAR     48  47  97 S5        30.14S
$$

WIZ029-030-035-036-043>047-190400-
CENTRAL WISCONSIN

CITY           SKY/WX    TMP DP  RH WIND       PRES   REMARKS
WAUSAU         CLEAR     48  46  93 E5        30.14R
MOSINEE        CLEAR     46  46 100 E5        30.15R
MARSHFIELD     CLEAR     50  48  93 SE6       30.13S
STEVENS POINT  CLEAR     44  43  97 E3        30.15S FOG
WAUPACA        CLEAR     51  50  95 CALM      30.17R
WAUTOMA        CLEAR     47  46  96 CALM      30.16S FOG
WISC RAPIDS    CLEAR     50  48  93 E5        30.15S
CAMP DOUGLAS   CLEAR     46  46 100 CALM      30.13S
$$

WIZ011>013-019>022-031-037>040-048>050-190400-
NORTHEAST WISCONSIN

CITY           SKY/WX    TMP DP  RH WIND       PRES   REMARKS
ANTIGO         CLEAR     44  43  97 SE6       30.16S
STURGEON BAY   CLEAR     46  43  87 CALM      30.17S
GREEN BAY      CLEAR     48  46  93 CALM      30.17S
MANITOWOC      CLEAR     46  45  96 CALM      30.17S
APPLETON       PTCLDY    52  46  82 SE8       30.16S
CLINTONVILLE   CLEAR     46  45  93 CALM      30.16R
OSHKOSH        CLEAR     51  49  92 SE5       30.16R
$$

WIZ032>034-041-042-053>061-190400-
SOUTHWEST WISCONSIN

CITY           SKY/WX    TMP DP  RH WIND       PRES   REMARKS
LA CROSSE      CLEAR     60  54  80 SE8       30.09R
SPARTA         CLEAR     52  50  93 CALM      30.12R
VIROQUA        FAIR      55  55 100 SE7       30.12R
BOSCOBEL       CLEAR     56  53  90 CALM      30.12R FOG
PRAIRIE DU CHI CLEAR     59  51  76 CALM      30.10R
PLATTEVILLE    FAIR      55  52  88 CALM      30.12S
$$

WIZ056-057-062-063-064-067-068-190400-
SOUTH CENTRAL WISCONSIN

CITY           SKY/WX    TMP DP  RH WIND       PRES   REMARKS
BARABOO/DELLS  CLEAR     51  48  90 E3        30.13S
LONE ROCK      CLEAR     58  51  78 E5        30.13R
WATERTOWN      CLEAR     50  50 100 CALM      30.16R
MADISON        PTCLDY    54  51  90 E5        30.15R
MIDDLETON      FAIR      49  49  99 CALM      30.15R
MONROE         CLEAR     54  54 100 E7        30.14R
JANESVILLE     CLEAR     54  50  87 E5        30.14R
$$

WIZ051-052-058>065-066-070>072-190400-
SOUTHEAST WISCONSIN

CITY           SKY/WX    TMP DP  RH WIND       PRES   REMARKS
MILWAUKEE      PTCLDY    54  50  86 NE5       30.17F
WAUKESHA       PTCLDY    48  46  93 CALM      30.18R
MILWAUKEE/TIMM CLOUDY    54  50  87 E3        30.18S
RACINE         CLEAR     54  50  86 N3        30.18S
BURLINGTON     MOCLDY    51  50  96 CALM      30.17R
KENOSHA        CLEAR     52  51  97 NE6       30.16F
FOND DU LAC    CLEAR     50  47  89 SE5       30.17R
SHEBOYGAN      CLEAR     43  42  97 CALM      30.17S
WEST BEND      FOG       46  45  93 CALM      30.18R VSB 1
JUNEAU         CLEAR     51  49  94 E9        30.17R FOG
$$

LSZ147-162-190400-
LAKE SUPERIOR

STATION/POSITION TIME  TEMP    WIND        PRES    WAVE
                       AIR SEA DIR/SP/G            HT/PER
                 (UTC) (F)     (DEG/KT/KT) (MB)    (FT/S)
W MID LAKE BUOY  0250   47 46  110/  8/  8 1018.6F   1/ 4
DEVILS ISLAND    0300   49      80/  9/ 10 1018.5F
PORT WING        0200   47      90/  2/  3 1017.9F
SAXON HARBOR     0200   45      CALM  /  4 1018.3
$$

LMZ867-665-643>646-190400-
LAKE MICHIGAN

STATION/POSITION TIME  TEMP    WIND        PRES    WAVE
                       AIR SEA DIR/SP/G            HT/PER
                 (UTC) (F)     (DEG/KT/KT) (MB)    (FT/S)
N MID LAKE BUOY  0250   54 58  130/  6/  8 1022.0F   0
NORTHPORT PIER   0200   53     120/  8/  9 1021.7R
KEWAUNEE LAKESHO 0300   53     120/  3/  5 1020.6F
SHEBOYGAN LAKESH 0300   52 49   20/  3/  4 1022.3R
PORT WASHINGTON  0240   52     270/  2/  2 1022.4R
ATWATER BUOY     0300   57      60/  4/  6 1022.5F
MILWAUKEE LAKESH 0300   56      40/  4/  6   N/A
S MID LAKE BUOY  0250   61 64   30/ 10/ 12 1021.7R   2/ 5
KENOSHA   LAKESH 0300   56      10/  8/  9 1021.0S
$$

TC  - TEMPERATURE IN CELSIUS
VSB - VISIBILITY IN STATUTE MILES
WCI - WIND CHILL INDEX
HX  - HEAT INDEX



USA.gov is the U.S. government's official web portal to all federal, state and local government web resources and services.